Home   Weather   Hagen   Past weeks

Flag for Germany Past Weather in Hagen, North Rhine-Westphalia, Germany — Yesterday and Last 2 Weeks

Now
72 °F

Scattered clouds.


Feels Like: 77 °F
Forecast: 59 / 69 °F
Wind: 7 mph from Northwest

Location: Dortmund / Wickede

Current Time: Jul 26, 2017 at 4:51:13 pm

Latest Report: Jul 26, 2017 at 4:20 pm


Visibility: N/A

Pressure: 29.80 "Hg

Humidity: 47%

Dew Point: 50 °F

Location of HagenLocation

Past Weather in Hagen — Graph

°F

Hagen Temperature Yesterday

Maximum temperature yesterday: 61 °F (at 3:20 pm)
Minimum temperature yesterday: 55 °F (at 5:20 am)
Average temperature yesterday: 58 °F

High & Low Weather Summary for the Past Weeks

 TemperatureHumidityPressure
High90 °F (Jul 19, 2:50 pm)100% (Jul 24, 11:50 am)30.21 "Hg (Jul 24, 11:50 am)
Low39 °F (Jul 24, 11:50 am)29% (Jul 19, 2:50 pm)29.68 "Hg (Jul 12, 1:20 pm)
Average64 °F66%29.96 "Hg
* Reported Jul 11 2:20 pm — Jul 26 2:50 pm, Hagen. Weather by CustomWeather, © 2017

Note: Actual official high and low records may vary slightly from our data, if they occured in-between our weather recording intervals... More about our weather records

Advertising

Hagen Weather History for the Previous 24 Hours

Scroll right to see more
 ConditionsComfort  
Time TempWeatherWind HumidityBarometerVisibility
2:50 pm
Wed, Jul 26
68 °FScattered clouds.7 mph56%29.80 "HgN/A
2:20 pm70 °FScattered clouds.7 mph60%29.80 "HgN/A
1:50 pm68 °FPartly sunny.8 mph56%29.80 "HgN/A
1:20 pm68 °FPartly sunny.9 mph56%29.80 "HgN/A
12:50 pm66 °FScattered clouds.7 mph60%29.80 "HgN/A
12:20 pm66 °FScattered clouds.9 mph64%29.80 "HgN/A
11:50 am63 °FScattered clouds.8 mph77%29.80 "HgN/A
11:20 am64 °FPartly sunny.8 mph73%29.80 "HgN/A
10:50 am63 °FPartly sunny.7 mph83%29.80 "HgN/A
10:20 am63 °FPartly sunny.7 mph77%29.80 "HgN/A
9:20 am59 °FPartly sunny.6 mph88%29.80 "Hg6 mi
8:50 am59 °FPartly sunny.5 mph88%29.77 "Hg4 mi
8:20 am59 °FPartly sunny.7 mph88%29.77 "Hg4 mi
7:50 am59 °FSprinkles. Low clouds.6 mph88%29.77 "Hg4 mi
7:20 am59 °FSprinkles. Low clouds.6 mph88%29.77 "Hg4 mi
6:50 am57 °FLow clouds.5 mph94%29.77 "Hg4 mi
6:20 am57 °FLow clouds.5 mph94%29.77 "Hg4 mi
5:50 am57 °FLow clouds.6 mph94%29.77 "Hg4 mi
5:20 am57 °FLow clouds.5 mph94%29.77 "Hg4 mi
9:50 pm
Tue, Jul 25
57 °FLight rain. Low clouds.8 mph94%29.74 "Hg4 mi
9:20 pm59 °FLight rain. Fog.7 mph88%29.71 "Hg2 mi
8:50 pm59 °FLight rain. Low clouds.8 mph88%29.71 "Hg4 mi
8:20 pm59 °FLight rain. Fog.8 mph88%29.71 "Hg2 mi
7:50 pm59 °FLight rain. Partly sunny.7 mph88%29.71 "Hg5 mi
7:20 pm59 °FLight rain. Partly sunny.9 mph88%29.71 "HgN/A
6:50 pm59 °FLight rain. Partly sunny.7 mph88%29.68 "Hg5 mi
6:20 pm59 °FLight rain. Partly sunny.9 mph88%29.71 "Hg4 mi
5:50 pm59 °FLight rain. Partly sunny.9 mph88%29.71 "Hg5 mi
5:20 pm61 °FLight rain. Partly sunny.10 mph88%29.71 "Hg5 mi
4:50 pm59 °FLight rain. Partly sunny.9 mph88%29.71 "Hg5 mi
4:20 pm61 °FLight rain. Partly sunny.8 mph83%29.74 "HgN/A
Weather by CustomWeather, © 2017

See weather overviewHow to use our weather pages